DW5174 Kilkenny IE current weather conditions

sailwx.info

Wind from 061

Air temperature 18.9° C
Dewpoint 14.4° C

Last reported at 2019-Jun-27 08:07 UTC.
Time now 2019-Jun-27 10:43 UTC

Location: N 52°40' W 007°15'.
View on Google Maps.

See reports from other nearby stations

  
Tides and Currents Weather Stations Pressure Air Temp Water Temp Dewpoint Dewpoint Depression Visibility Wind Speed Wind Dir Waves Ship Positions
date/time (UTC)wind fromknots sea level pressurealtimeterstation pressurevisibilityair tempwater tempwave heightnotes
2019-Jun-27 08:07 061 18.9
2019-Jun-27 08:02 094 0 gusting 1 18.3
2019-Jun-27 07:57 213 18.3
2019-Jun-27 07:52 213 18.3
2019-Jun-27 07:47 331 17.8
2019-Jun-27 07:42 331 17.8
2019-Jun-27 07:37 331 17.8
2019-Jun-27 07:32 331 17.2
2019-Jun-27 07:27 331 16.7
2019-Jun-27 07:22 331 16.7
2019-Jun-27 07:17 331 16.1
2019-Jun-27 07:12 288 2 gusting 7 16.1
2019-Jun-27 07:07 279 15.6
2019-Jun-27 07:02 296 15.6
2019-Jun-27 06:57 002 3 gusting 6 15.0
2019-Jun-27 06:52 299 2 gusting 7 15.0
2019-Jun-27 06:47 341 0 gusting 7 14.4
2019-Jun-27 06:42 001 1 gusting 7 14.4
2019-Jun-27 06:37 336 14.4
2019-Jun-27 06:32 355 2 gusting 4 13.9
2019-Jun-27 06:27 296 0 gusting 4 13.9
2019-Jun-27 06:22 307 13.9
2019-Jun-27 06:17 320 13.3
2019-Jun-27 06:12 320 13.3
2019-Jun-27 06:07 011 13.3
2019-Jun-27 06:02 011 13.3
2019-Jun-27 05:57 011 13.3
2019-Jun-27 05:52 011 13.3
2019-Jun-27 05:47 011 0 gusting 6 13.3
2019-Jun-27 05:42 317 12.8
2019-Jun-27 05:37 317 12.8
2019-Jun-27 05:32 004 12.8
2019-Jun-27 05:27 004 12.8
2019-Jun-27 05:22 004 12.8
2019-Jun-27 05:17 004 12.8
2019-Jun-27 05:12 004 12.8
2019-Jun-27 05:07 004 12.2
2019-Jun-27 05:02 004 12.2
2019-Jun-27 04:57 004 12.2
2019-Jun-27 04:52 004 12.2
2019-Jun-27 04:02 004 12.2
2019-Jun-27 03:57 004 12.2
2019-Jun-27 03:52 005 12.2
2019-Jun-27 03:47 004 12.2
2019-Jun-27 03:42 357 12.2
2019-Jun-27 03:37 326 12.2
2019-Jun-27 03:32 326 12.2
2019-Jun-27 03:27 326 12.2
2019-Jun-27 03:22 326 12.2
2019-Jun-27 03:17 326 12.2
2019-Jun-27 03:12 326 12.2
2019-Jun-27 03:07 326 12.8
2019-Jun-27 03:02 326 12.8
2019-Jun-27 02:57 338 12.8
2019-Jun-27 02:52 338 12.8
2019-Jun-27 02:47 005 12.8
2019-Jun-27 02:42 005 12.2
2019-Jun-27 02:37 326 12.8
2019-Jun-27 02:32 348 12.8
2019-Jun-27 02:27 348 12.2
2019-Jun-27 02:22 327 12.2
2019-Jun-27 02:17 348 12.2
2019-Jun-27 02:12 12.2
2019-Jun-27 02:07 12.2
2019-Jun-27 02:02 12.2
2019-Jun-27 01:57 12.2
2019-Jun-27 01:52 12.8
2019-Jun-27 01:47 12.8
2019-Jun-27 01:42 12.8
2019-Jun-27 01:37 12.8
2019-Jun-27 01:32 004 12.8
2019-Jun-27 01:27 004 12.8
2019-Jun-27 01:22 004 12.8
2019-Jun-27 01:17 023 12.8
2019-Jun-27 01:12 023 12.8
2019-Jun-27 01:07 023 12.8
2019-Jun-27 01:02 023 12.8
2019-Jun-27 00:57 023 13.3
2019-Jun-27 00:52 023 13.3
2019-Jun-27 00:47 023 13.3
2019-Jun-27 00:42 023 13.3
2019-Jun-27 00:37 355 13.3
2019-Jun-27 00:32 355 13.3
2019-Jun-27 00:22 351 13.3
2019-Jun-27 00:17 351 13.3
2019-Jun-27 00:12 351 13.3
2019-Jun-27 00:07 351 13.3
2019-Jun-27 00:02 358 13.3
2019-Jun-26 23:57 345 13.3
2019-Jun-26 23:52 345 13.3
2019-Jun-26 23:47 345 13.3
2019-Jun-26 23:42 345 13.3
2019-Jun-26 23:37 345 13.3
2019-Jun-26 23:32 345 13.3
2019-Jun-26 23:27 345 13.3
2019-Jun-26 23:22 345 13.3
2019-Jun-26 23:17 345 0 13.3
2019-Jun-26 23:12 022 13.3
2019-Jun-26 23:07 022 13.9
2019-Jun-26 23:02 022 13.9
2019-Jun-26 22:57 022 14.4
2019-Jun-26 12:07 007 2 gusting 14 20.0
2019-Jun-26 12:02 028 10 gusting 15 20.0
2019-Jun-26 11:57 042 7 gusting 15 20.0
2019-Jun-26 11:52 323 8 gusting 15 20.6
2019-Jun-26 11:47 012 6 gusting 15 20.6
2019-Jun-26 11:42 043 8 gusting 17 20.6
2019-Jun-26 11:37 018 7 gusting 17 20.6
2019-Jun-26 11:32 326 7 gusting 19 20.0
2019-Jun-26 11:27 046 5 gusting 15 20.6
2019-Jun-26 11:22 056 6 gusting 15 20.0
2019-Jun-26 11:17 014 8 gusting 15 20.0
2019-Jun-26 11:12 032 7 gusting 13 20.0
2019-Jun-26 11:07 028 8 gusting 13 20.0
2019-Jun-26 11:02 323 5 gusting 15 20.0
2019-Jun-26 10:57 002 8 gusting 15 20.0
2019-Jun-26 10:52 075 5 gusting 14 19.4
2019-Jun-26 10:47 047 8 gusting 14 19.4
2019-Jun-26 10:42 059 5 gusting 17 19.4
2019-Jun-26 10:37 011 6 gusting 17 19.4
2019-Jun-26 10:32 348 8 gusting 15 19.4
2019-Jun-26 10:27 035 9 gusting 15 19.4
2019-Jun-26 10:22 015 9 gusting 19 18.9
2019-Jun-26 10:17 029 6 gusting 19 18.9
2019-Jun-26 10:12 029 6 gusting 19 18.9
2019-Jun-26 10:07 035 9 gusting 19 18.9
2019-Jun-26 10:02 352 6 gusting 11 18.9
2019-Jun-26 09:57 334 2 gusting 11 18.3
2019-Jun-26 09:52 022 7 gusting 11 18.3
2019-Jun-26 09:47 047 5 gusting 11 18.3
2019-Jun-26 09:42 075 6 gusting 14 18.3
2019-Jun-26 09:37 352 6 gusting 14 18.3
2019-Jun-26 09:32 032 6 gusting 13 17.8
2019-Jun-26 09:27 008 6 gusting 13 17.8
2019-Jun-26 09:22 043 1 gusting 15 17.8
2019-Jun-26 09:17 023 6 gusting 15 17.8
2019-Jun-26 09:12 052 6 gusting 15 17.8
2019-Jun-26 09:07 341 3 gusting 15 17.8
2019-Jun-26 09:02 012 5 gusting 12 17.2
2019-Jun-26 08:57 322 3 gusting 12 17.2
2019-Jun-26 08:52 026 1 gusting 11 17.2
2019-Jun-26 08:47 002 6 gusting 11 17.2
2019-Jun-26 08:42 030 2 gusting 13 16.7
2019-Jun-26 08:37 012 4 gusting 13 16.7
2019-Jun-26 08:32 345 10 gusting 10 16.7
2019-Jun-26 08:27 043 0 gusting 10 16.7
2019-Jun-26 08:22 351 16.1
2019-Jun-26 08:17 014 2 gusting 11 16.1
2019-Jun-26 08:12 009 4 gusting 8 16.1
2019-Jun-26 08:07 305 16.1
2019-Jun-26 08:02 333 1 gusting 9 16.1
2019-Jun-26 07:57 334 3 gusting 9 16.1
2019-Jun-26 05:12 338 2 12.2
2019-Jun-26 05:07 327 12.2
2019-Jun-26 05:02 327 12.2
2019-Jun-26 04:57 327 12.2
2019-Jun-26 04:52 327 12.2
2019-Jun-26 04:47 327 12.2
2019-Jun-26 04:42 327 12.2
2019-Jun-26 04:37 327 12.2
2019-Jun-26 04:32 327 12.2
2019-Jun-26 04:27 327 12.2
2019-Jun-26 04:22 007 12.2
2019-Jun-26 04:17 348 12.2
2019-Jun-26 04:12 348 1 12.2
2019-Jun-26 04:07 354 12.8
2019-Jun-26 04:02 354 12.8
2019-Jun-26 03:57 354 12.8
2019-Jun-26 03:52 317 12.8
2019-Jun-26 03:47 340 12.2
2019-Jun-26 03:42 262 12.2
2019-Jun-26 03:37 262 12.2
2019-Jun-26 03:32 262 12.2
2019-Jun-26 03:27 345 12.2
2019-Jun-26 03:22 345 12.2
2019-Jun-26 03:17 351 1 12.2
2019-Jun-26 03:12 315 12.2
2019-Jun-26 03:07 315 12.2
2019-Jun-26 03:02 315 12.2
2019-Jun-26 02:57 315 12.2
2019-Jun-26 02:52 315 12.2
2019-Jun-26 02:47 315 12.2
2019-Jun-26 02:42 315 0 12.2
2019-Jun-26 02:37 347 12.2
2019-Jun-26 02:32 347 12.2
2019-Jun-26 02:27 347 12.2
2019-Jun-26 02:22 347 12.2
2019-Jun-26 02:17 347 12.2
2019-Jun-26 02:12 347 12.2
2019-Jun-26 02:07 347 12.2
2019-Jun-26 02:02 347 12.2
2019-Jun-26 01:57 347 12.8
2019-Jun-26 01:52 347 12.8
2019-Jun-26 01:47 347 12.8
2019-Jun-26 01:42 347 12.8
2019-Jun-26 01:37 347 12.8
2019-Jun-26 01:32 347 12.8
2019-Jun-26 01:27 347 12.8
2019-Jun-26 01:22 347 12.8
2019-Jun-26 01:17 347 13.3
2019-Jun-26 01:12 347 13.3
2019-Jun-26 01:07 347 13.3
2019-Jun-26 01:02 347 13.3
2019-Jun-26 00:57 347 13.9
2019-Jun-26 00:52 347 13.9
2019-Jun-26 00:47 347 13.9
2019-Jun-26 00:42 347 13.9
2019-Jun-26 00:37 347 13.9
2019-Jun-26 00:32 347 2 gusting 6 14.4
2019-Jun-26 00:27 007 14.4
2019-Jun-26 00:22 007 14.4
2019-Jun-26 00:17 355 14.4
2019-Jun-26 00:07 355 14.4
2019-Jun-26 00:02 350 14.4
2019-Jun-25 23:57 350 14.4
2019-Jun-25 23:52 018 14.4
2019-Jun-25 23:47 018 14.4
2019-Jun-25 23:42 018 14.4
2019-Jun-25 23:37 018 14.4
2019-Jun-25 23:32 018 14.4
2019-Jun-25 23:27 018 14.4
2019-Jun-25 23:22 018 14.4
2019-Jun-25 23:17 018 14.4
2019-Jun-25 23:12 018 14.4
2019-Jun-25 23:07 018 14.4
2019-Jun-25 23:02 018 14.4
2019-Jun-25 22:57 018 14.4
2019-Jun-25 22:52 018 14.4
2019-Jun-25 22:47 018 14.4
2019-Jun-25 22:42 018 14.4
2019-Jun-25 22:37 018 15.0
2019-Jun-25 22:32 018 15.0
2019-Jun-25 22:27 018 15.0
2019-Jun-25 22:22 018 15.0
2019-Jun-25 22:17 018 15.0
2019-Jun-25 22:12 347 15.0
2019-Jun-25 22:07 347 15.0
2019-Jun-25 22:02 347 15.6
2019-Jun-25 21:57 347 15.6
2019-Jun-25 21:52 347 15.6
2019-Jun-25 21:47 347 15.6
2019-Jun-25 21:42 347 15.6
2019-Jun-25 21:37 347 16.1
2019-Jun-25 21:32 347 16.1
2019-Jun-25 21:27 347 16.1
2019-Jun-25 21:22 347 16.1
2019-Jun-25 21:17 347 16.7
2019-Jun-25 21:07 347 16.7
2019-Jun-25 21:02 005 1 gusting 7 16.7
2019-Jun-25 20:57 324 16.7
2019-Jun-25 20:52 324 16.7
2019-Jun-25 20:47 324 0 gusting 8 17.2
2019-Jun-25 20:42 011 17.2
2019-Jun-25 20:37 012 1 gusting 8 17.2
2019-Jun-25 20:32 327 1 gusting 6 17.2
2019-Jun-25 20:27 009 17.8
2019-Jun-25 20:22 016 17.8
2019-Jun-25 20:17 016 17.8
2019-Jun-25 20:12 028 17.8
2019-Jun-25 20:07 357 0 gusting 8 18.3
2019-Jun-25 20:02 028 3 gusting 10 18.3
2019-Jun-25 19:57 18.3
2019-Jun-25 19:52 033 1 gusting 9 18.9
2019-Jun-25 19:47 057 4 gusting 9 18.9
2019-Jun-25 19:42 035 4 gusting 9 18.9
2019-Jun-25 19:37 016 6 gusting 9 18.9
2019-Jun-25 19:32 035 4 gusting 11 19.4
2019-Jun-25 19:27 047 6 gusting 11 19.4
2019-Jun-25 19:22 019 5 gusting 11 19.4
2019-Jun-25 19:02 012 6 gusting 11 20.0
2019-Jun-25 18:32 022 6 gusting 13 20.6
2019-Jun-25 18:17 033 6 gusting 13 21.1
2019-Jun-25 18:12 029 8 gusting 15 21.1
2019-Jun-25 18:07 033 5 gusting 15 21.1
2019-Jun-25 18:02 026 8 gusting 15 21.1
2019-Jun-25 17:57 316 6 gusting 15 21.1
2019-Jun-25 17:52 046 7 gusting 12 21.1
2019-Jun-25 17:47 015 7 gusting 12 21.1
2019-Jun-25 17:42 348 4 gusting 13 21.1
2019-Jun-25 17:37 049 7 gusting 13 21.1
2019-Jun-25 17:32 033 4 gusting 17 21.7
2019-Jun-25 17:27 333 8 gusting 17 21.7
2019-Jun-25 17:22 023 7 gusting 17 21.7
2019-Jun-25 17:17 030 6 gusting 13 21.7
2019-Jun-25 17:12 004 6 gusting 13 21.7
2019-Jun-25 17:07 299 6 gusting 13 21.7
2019-Jun-25 17:02 033 4 gusting 12 21.7
2019-Jun-25 16:57 045 6 gusting 12 21.7
2019-Jun-25 16:52 21.7
2019-Jun-25 16:47 130 4 gusting 12 22.2
2019-Jun-25 16:42 035 5 gusting 15 22.2
2019-Jun-25 16:37 347 5 gusting 15 22.2
2019-Jun-25 16:32 015 5 gusting 13 22.2
2019-Jun-25 16:27 033 5 gusting 13 22.2
2019-Jun-25 16:22 352 6 gusting 12 21.7
2019-Jun-25 16:17 347 6 gusting 12 21.7
2019-Jun-25 16:12 348 2 gusting 13 21.7
2019-Jun-25 16:07 330 7 gusting 13 21.7
2019-Jun-25 16:02 073 6 gusting 17 21.7
2019-Jun-25 15:57 350 6 gusting 17 21.7
2019-Jun-25 15:52 329 6 gusting 19 21.7
2019-Jun-25 15:47 011 2 gusting 19 21.7
2019-Jun-25 15:42 042 8 gusting 13 21.7
2019-Jun-25 15:37 002 9 gusting 13 21.7
2019-Jun-25 15:32 019 5 gusting 12 21.1
2019-Jun-25 15:27 329 6 gusting 12 21.1
2019-Jun-25 15:22 338 6 gusting 11 21.1
2019-Jun-25 15:17 319 2 gusting 11 21.1
2019-Jun-25 15:12 004 5 gusting 10 21.1
2019-Jun-25 15:07 300 5 gusting 10 21.1